Location: Gallinara
(44.0333°N, 8.2333°E)
Time: 00:15:08
(UTC+00:00)

Cosmos 2360 Rocket - Visible Passes

Search period start: 20 January 2021 00:00
Search period end: 30 January 2021 00:00
Orbit: 834 x 845 km, 71.0° (Epoch: 19 January)

Date Brightness Start Highest point End Pass type
(mag) Time Alt. Az. Time Alt. Az. Time Alt. Az.
20 Jan 3.6 04:20:05 25° N 04:20:05 25° N 04:22:40 10° NNE visible
21 Jan 4.0 04:05:03 21° N 04:05:03 21° N 04:06:56 10° NNE visible
22 Jan 4.3 03:49:57 17° N 03:49:57 17° N 03:51:13 10° NNE visible
22 Jan 4.2 05:31:43 10° NNW 05:31:43 10° NNW 05:32:05 10° NNW visible
23 Jan 4.5 03:34:46 14° NNE 03:34:46 14° NNE 03:35:29 10° NNE visible
23 Jan 4.3 05:16:33 10° NNW 05:16:33 10° NNW 05:16:49 10° NNW visible
24 Jan 4.8 03:19:33 11° NNE 03:19:33 11° NNE 03:19:45 10° NNE visible
24 Jan 4.3 05:01:19 10° NNW 05:01:19 10° NNW 05:01:23 10° NNW visible
